Theta_e
291 286 283 287 288 288 288 286 285 286 289 288 287 287 290 292 291 292 291 292 292 293 295 294 292 293 292 293 294 295 296 298 299 300 300 301 301 304 305 307 307 307 307 307
288 284 288 290 289 288 286 285 284 286 287 287 285 286 290 289 289 289 290 290 291 292 292 291 292 293 290 292 293 295 296 297 299 300 301 301 302 303 305 307 308 307 307 308
286 287 290 290 287 287 285 284 282 285 286 286 283 285 286 288 291 291 292 291 291 292 291 290 291 292 291 292 293 295 296 298 299 300 301 302 304 306 307 308 307 307 308 309
287 289 289 287 286 287 284 286 285 285 283 279 284 279 283 285 286 289 291 290 291 291 291 290 290 290 291 292 293 295 296 298 300 300 300 300 300 301 305 311 310 308 309 310
285 287 286 285 287 288 285 287 285 284 283 281 280 277 283 284 284 286 290 290 290 290 290 289 289 289 292 292 294 294 296 298 299 299 300 300 300 303 307 308 312 309 309 312
284 289 288 288 287 287 288 286 284 283 281 275 277 278 283 281 284 285 289 290 289 289 288 288 289 290 292 292 294 295 295 296 298 298 299 299 299 301 303 303 306 311 315 315
284 284 287 288 285 288 285 282 278 276 274 277 280 278 283 286 286 287 288 290 290 288 287 287 287 288 291 291 293 294 296 296 297 297 297 297 299 300 301 302 303 305 311 313
280 278 285 287 286 284 283 283 279 274 274 276 280 277 285 287 287 288 289 290 290 288 287 287 286 288 290 291 292 293 295 295 295 297 296 297 297 299 300 301 302 303 305 307
280 279 285 286 287 286 283 280 283 278 271 274 279 282 286 285 285 287 288 288 289 288 286 286 285 287 290 291 292 293 294 294 295 296 296 296 296 297 297 300 300 301 302 305
285 280 283 285 286 285 283 285 279 277 273 272 277 278 282 284 285 285 287 287 288 288 286 285 285 286 289 290 291 293 294 294 295 296 296 295 295 295 296 298 298 299 299 301
286 283 281 284 282 281 281 280 281 280 278 276 274 281 285 285 286 286 286 288 288 287 286 285 284 285 289 289 290 292 293 294 295 295 295 295 295 295 295 295 296 297 298 299
287 283 277 280 282 284 282 282 281 278 276 276 277 280 287 286 286 287 287 288 288 288 286 285 284 285 287 289 290 292 293 294 293 294 294 294 294 294 294 294 294 295 295 296
287 277 270 276 280 280 281 282 282 281 280 276 276 280 287 286 287 286 287 287 288 287 286 285 283 284 287 288 289 290 292 293 293 292 293 293 292 292 292 292 293 294 294 294
292 282 281 279 281 281 279 281 282 282 276 278 278 282 286 287 286 286 287 287 287 287 286 284 283 283 286 287 288 289 290 292 293 291 290 290 290 290 290 291 290 291 291 291
288 278 279 281 281 282 282 281 281 281 283 280 282 282 289 292 288 289 287 287 287 287 286 285 284 284 284 286 288 288 290 290 290 289 288 287 287 288 289 288 288 288 288 287
287 281 279 276 280 280 277 281 281 283 283 281 283 283 291 290 286 285 287 287 287 287 288 287 286 285 284 287 288 288 289 288 288 288 287 286 286 286 286 286 287 287 286 286
285 281 281 275 278 277 279 282 280 281 281 285 281 288 287 286 286 287 288 288 287 288 289 289 287 286 286 286 289 288 289 288 287 287 286 286 286 285 285 285 285 285 285 285
284 282 283 274 275 278 285 281 285 286 286 285 285 288 289 288 288 289 289 290 289 289 289 290 289 288 288 287 289 290 289 288 287 287 286 285 285 285 284 284 284 283 283 284
290 286 283 280 278 281 283 281 283 283 286 289 287 291 292 287 287 288 289 289 289 290 290 290 290 289 288 287 289 289 288 288 287 287 286 286 285 284 283 283 283 282 282 283
288 289 285 279 279 275 281 282 283 287 282 290 291 291 289 287 284 285 287 287 288 289 290 290 290 288 288 287 288 289 289 288 288 288 287 286 285 285 284 283 282 282 282 282
282 283 281 280 279 277 284 282 284 279 284 287 289 290 286 287 288 288 287 287 287 288 289 290 289 288 288 287 288 288 289 289 291 289 287 285 285 285 285 283 282 282 282 282
282 281 280 282 280 277 282 283 283 287 285 284 286 287 287 287 287 286 285 286 287 287 287 289 288 287 287 286 287 287 288 290 290 288 287 285 284 284 283 283 281 281 282 281
277 276 276 283 283 286 283 284 286 286 284 283 283 284 287 286 285 285 286 286 286 286 286 286 287 286 285 285 287 286 288 288 287 287 286 285 284 283 283 283 281 281 281 281
277 280 276 278 281 281 285 284 286 288 288 287 285 283 283 283 285 284 285 285 285 285 285 285 285 285 284 284 285 287 286 286 286 287 286 286 284 283 282 283 283 283 282 281
276 277 277 276 280 282 283 283 285 285 288 289 288 286 285 284 284 285 285 285 285 284 284 284 284 284 285 284 284 284 284 286 286 286 286 285 285 284 283 284 284 283 284 284
278 277 278 276 281 279 280 283 285 282 283 283 286 290 287 285 284 285 284 284 284 283 281 281 281 280 282 281 282 282 283 286 286 285 285 286 285 285 284 284 282 286 287 286
Wind_Speed
0 3 6 8 6 4 5 2 4 4 1 3 7 15 21 13 10 15 12 10 10 9 2 4 5 2 3 2 6 7 9 10 8 6 7 5 7 8 6 5 7 5 6 6
3 6 4 6 4 3 2 0 5 5 0 1 7 23 21 7 5 6 9 9 10 6 5 5 4 1 2 4 5 8 9 9 8 6 6 4 7 5 7 5 4 4 6 5
7 1 4 5 4 4 2 4 3 4 6 1 8 11 5 1 3 3 5 5 5 10 9 6 5 1 2 4 6 8 9 9 8 9 7 6 6 4 3 3 1 4 6 4
4 2 5 3 3 6 2 2 3 1 4 3 5 9 9 3 8 3 2 3 5 7 6 5 5 2 2 3 5 7 8 8 7 10 8 8 5 4 4 5 1 2 4 4
5 7 4 3 4 6 3 3 3 2 3 3 2 2 12 4 4 2 4 3 4 6 8 8 6 4 2 3 4 6 7 7 8 8 8 6 7 6 6 7 4 3 3 3
2 0 4 4 3 2 8 4 4 4 2 2 2 4 9 4 5 2 2 4 6 6 7 6 5 3 1 2 4 5 7 6 7 7 8 8 8 8 7 8 8 4 3 2
1 2 2 4 6 4 3 4 4 6 3 6 2 1 14 5 6 4 7 8 7 6 7 7 6 4 2 2 3 4 6 5 7 7 7 8 7 8 7 6 5 8 5 4
8 5 9 5 5 7 6 6 6 7 3 4 3 8 9 5 1 4 2 6 7 7 6 7 6 5 3 2 2 3 6 6 6 6 7 6 6 4 4 6 6 5 5 5
6 3 1 1 2 4 6 5 4 7 2 3 5 9 10 4 5 2 6 5 8 8 7 8 6 5 4 3 3 2 4 6 4 5 5 6 5 6 6 6 7 5 7 5
7 4 1 1 2 2 3 5 4 2 3 4 5 6 7 3 6 8 7 9 8 7 7 7 7 6 4 3 3 1 3 3 3 3 4 4 4 6 6 5 7 6 6 7
6 5 1 3 7 8 3 3 2 2 4 6 2 7 6 4 3 8 9 8 9 9 9 8 7 6 5 3 3 2 3 2 3 3 3 3 3 5 6 5 6 5 5 6
5 6 5 7 1 2 3 7 8 5 6 2 3 9 1 5 3 3 7 8 7 8 8 8 8 7 6 5 4 3 2 2 2 2 4 3 3 5 5 5 5 5 6 6
10 3 4 7 4 2 6 6 5 3 3 7 7 7 1 3 4 4 5 6 7 7 7 7 6 8 7 6 5 4 3 4 0 2 3 5 4 5 6 5 5 4 6 7
4 4 8 10 6 7 8 9 11 7 4 5 7 6 5 5 5 4 6 6 6 7 8 7 7 8 8 7 6 5 4 4 3 3 3 4 4 5 5 6 6 7 6 8
3 6 5 3 2 3 5 7 17 18 17 9 4 14 15 13 7 8 8 6 6 8 9 11 11 10 9 8 7 6 5 5 5 5 4 3 4 4 5 6 7 7 8 8
1 2 3 2 3 1 4 8 12 16 13 10 15 23 12 12 3 4 7 7 9 9 12 13 13 12 13 13 11 9 7 6 6 6 5 3 3 4 4 5 6 8 8 8
4 4 3 5 2 4 11 16 13 8 7 16 16 22 5 2 6 8 8 8 9 10 11 12 16 16 15 16 14 13 11 6 7 6 6 5 4 4 4 4 5 7 7 7
8 6 1 3 2 9 7 1 10 22 14 17 8 14 8 7 4 6 6 6 9 9 11 11 10 11 13 12 13 11 10 10 8 8 7 7 6 5 4 3 4 4 3 5
9 9 4 5 6 9 4 5 9 12 14 19 21 25 11 5 2 7 8 6 6 7 8 7 9 9 12 15 15 13 11 11 8 9 10 9 9 8 6 5 4 1 2 3
10 9 8 4 6 11 3 4 1 5 9 10 23 25 9 8 4 4 4 1 4 6 6 7 6 6 11 12 14 15 15 14 15 12 12 10 10 10 10 8 6 2 3 1
7 5 12 6 4 9 6 4 3 6 6 6 8 7 9 7 5 5 3 3 3 3 5 4 4 7 10 12 15 17 16 18 17 12 9 8 9 11 10 10 6 6 5 4
8 8 6 5 5 10 6 5 8 2 7 5 2 4 7 4 6 2 2 4 4 6 5 4 3 6 6 10 13 15 18 16 13 12 12 11 10 8 8 11 8 7 8 6
3 6 6 4 6 6 5 8 11 8 5 6 2 1 6 6 4 2 3 5 6 6 6 3 4 4 5 8 12 14 13 10 12 13 13 13 11 9 8 10 10 7 9 9
8 3 6 11 8 17 14 20 21 22 12 7 5 2 1 2 4 4 2 4 4 4 5 2 2 4 5 6 8 10 7 10 12 14 13 11 12 11 10 8 8 9 10 9
6 11 4 10 7 13 12 21 23 21 19 13 7 5 3 4 4 4 4 5 5 5 5 4 4 5 6 5 8 6 7 12 13 12 11 11 10 12 11 11 11 11 11 13
6 5 2 4 8 2 12 17 15 17 18 21 20 8 4 5 5 5 5 4 4 6 6 6 5 3 6 4 6 6 7 12 13 12 11 11 10 9 9 9 8 14 13 15
Wind_Direction
330 122 202 209 189 146 127 168 263 267 338 287 253 277 279 273 227 246 238 225 224 218 222 178 160 101 13 2 341 336 326 326 321 331 320 313 315 312 306 291 268 257 228 236
62 224 202 114 144 157 140 182 273 278 322 251 321 292 282 281 244 231 241 235 223 170 169 165 158 108 5 329 329 332 330 324 320 320 307 290 298 293 284 281 272 243 228 228
166 182 133 140 135 137 185 178 231 245 319 70 320 290 324 278 276 238 257 251 207 189 173 171 171 168 342 357 335 331 327 324 330 327 309 309 296 288 297 314 270 221 221 214
221 150 153 145 168 136 247 188 160 22 34 273 16 284 304 316 303 255 264 230 198 163 144 140 166 163 348 343 325 331 328 327 338 328 324 346 322 325 326 341 81 160 199 148
216 155 156 163 206 167 195 125 119 99 88 359 335 71 269 344 315 242 215 195 174 173 153 157 170 160 66 345 350 333 328 338 341 341 337 351 353 341 340 356 37 107 137 153
99 313 167 170 75 86 148 93 57 61 81 350 222 138 283 228 208 204 184 195 170 163 154 153 170 143 110 336 8 340 343 338 348 360 349 7 9 359 18 19 360 6 67 115
44 219 150 133 87 37 99 86 335 343 12 226 119 51 248 247 217 196 186 202 191 181 169 165 181 187 147 21 359 358 338 348 358 12 357 7 16 23 22 15 25 23 32 54
162 273 166 189 196 172 177 165 165 223 223 285 54 236 254 206 267 210 200 199 179 187 191 178 189 194 180 101 331 27 346 346 357 15 5 7 15 28 31 38 19 31 33 38
154 257 72 72 146 141 181 194 165 108 59 35 227 275 285 230 257 178 187 186 203 199 195 186 182 201 200 143 286 33 5 351 358 22 14 13 16 32 31 49 57 31 21 36
198 108 327 152 114 34 158 167 97 354 184 251 275 276 247 268 239 206 207 214 213 206 198 192 184 198 209 189 259 321 55 340 335 45 33 29 29 33 27 54 69 65 43 48
142 112 299 128 212 175 137 206 70 121 169 177 262 262 213 248 263 207 211 205 200 203 199 193 187 197 198 193 225 266 88 16 350 36 59 52 56 57 43 40 57 49 69 70
184 114 164 200 277 195 188 191 178 152 211 244 141 273 215 249 319 209 211 210 207 203 198 194 183 182 193 204 209 235 140 107 357 29 74 61 68 84 76 60 51 61 75 77
180 211 80 355 349 354 213 198 187 119 91 199 150 254 222 228 257 239 228 228 215 202 199 198 181 189 192 198 204 213 193 138 107 35 68 91 78 81 92 81 68 72 89 87
137 158 172 186 190 137 191 195 183 161 150 186 223 258 239 205 207 174 228 236 213 201 197 199 197 198 197 196 194 203 213 162 134 98 77 86 82 88 90 90 78 76 72 86
206 200 168 227 139 167 202 180 187 203 210 193 232 217 249 265 230 215 197 180 187 200 202 207 206 199 196 196 196 203 207 180 147 135 126 121 111 101 99 91 94 86 77 74
267 267 107 286 161 265 287 228 198 213 228 271 268 277 246 252 231 159 197 193 213 213 214 210 207 190 196 197 194 191 195 193 153 154 156 155 136 114 105 104 103 100 96 90
167 153 117 262 109 105 281 208 191 190 195 204 220 237 203 248 205 228 232 227 230 228 221 213 205 199 196 193 186 190 188 170 165 169 162 163 147 129 129 120 117 119 122 126
169 158 229 182 127 214 259 14 194 203 204 211 240 247 203 203 191 194 217 226 255 247 235 229 205 199 194 184 185 176 169 176 183 173 173 164 158 150 136 116 113 112 111 131
175 175 182 191 214 309 232 196 159 170 243 215 221 245 213 153 137 277 223 200 244 258 254 238 203 198 180 181 181 176 173 176 181 190 186 181 169 157 154 160 153 65 114 127
188 206 203 154 201 210 267 338 139 118 267 222 206 233 172 136 195 246 174 174 271 284 268 273 226 179 176 180 170 174 183 181 193 194 196 183 174 170 170 165 164 147 140 149
177 188 208 197 225 280 241 155 167 126 257 343 207 215 149 171 177 149 161 210 248 257 282 286 204 193 193 166 169 185 188 196 195 185 173 178 184 181 176 163 152 152 156 145
174 179 180 202 210 264 158 76 169 277 329 349 350 170 142 140 127 123 258 249 272 296 307 311 219 208 178 166 176 192 200 198 186 172 178 184 185 184 173 169 165 161 157 164
75 40 301 209 199 11 292 26 6 344 337 340 32 1 158 131 152 164 296 324 316 304 300 295 272 245 190 179 189 197 206 176 173 178 188 187 182 182 178 177 174 163 176 176
347 17 329 329 17 347 29 5 360 342 311 320 11 74 53 346 341 308 283 300 309 320 330 331 303 257 242 210 205 215 175 162 171 189 194 190 187 185 181 187 185 187 185 190
278 311 290 282 300 326 9 4 347 343 338 322 298 289 289 301 329 308 335 341 331 340 353 350 308 282 259 221 229 205 177 165 182 191 190 194 198 194 196 203 196 200 209 199
188 225 294 296 11 316 307 324 336 349 342 335 326 297 19 42 9 338 342 338 359 353 344 345 327 292 278 237 231 218 201 187 181 188 192 190 185 191 200 199 209 225 223 213